Home   Weather   Evansville   Past weeks

Flag for USA Past Weather in Evansville, Indiana, USA — Yesterday and Last 2 Weeks

Now
42 °F

Overcast.


Feels Like: 40 °F
Forecast: 37 / 46 °F
Wind: 3 mph from Northwest

Location: Evansville Regional Airport

Current Time: Jan 18, 2017 at 12:15:42 pm

Latest Report: Jan 18, 2017 at 10:54 am


Visibility: 10 mi

Pressure: 30.26 "Hg

Humidity: 76%

Dew Point: 35 °F

Location of EvansvilleLocation

Past Weather in Evansville — Graph

°F

Evansville Temperature Yesterday

Maximum temperature yesterday: 60 °F (at 2:18 am)
Minimum temperature yesterday: 44 °F (at 6:54 pm)
Average temperature yesterday: 51 °F

High & Low Weather Summary for the Past Weeks

 TemperatureHumidityPressure
High68 °F (Jan 12, 1:54 am)96% (Jan 14, 4:54 am)30.84 "Hg (Jan 14, 4:54 am)
Low5 °F (Jan 7, 6:54 am)41% (Jan 9, 2:54 pm)29.75 "Hg (Jan 3, 12:54 pm)
Average36 °F77%30.26 "Hg
* Reported Jan 3 10:28 am — Jan 18 10:54 am, Evansville, Weather by CustomWeather, © 2017

Note: Actual official high and low records may vary slightly from our data, if they occured in-between our weather recording intervals... More about our weather records

Advertising

Evansville Weather History for the Previous 24 Hours

Scroll right to see more
 ConditionsComfort  
Time TempWeatherWind HumidityBarometerVisibility
10:54 am
Wed, Jan 18
42 °FOvercast.3 mph76%30.26 "Hg10 mi
9:54 am42 °FOvercast.No wind73%30.28 "Hg10 mi
8:54 am41 °FOvercast.5 mph76%30.27 "Hg10 mi
7:54 am41 °FOvercast.6 mph76%30.25 "Hg10 mi
6:54 am41 °FOvercast.3 mph80%30.23 "Hg10 mi
5:54 am40 °FOvercast.5 mph83%30.22 "Hg10 mi
4:54 am41 °FOvercast.8 mph82%30.21 "Hg10 mi
3:54 am41 °FOvercast.6 mph82%30.19 "Hg10 mi
2:54 am41 °FOvercast.5 mph86%30.19 "Hg10 mi
1:54 am43 °FOvercast.6 mph82%30.17 "Hg10 mi
12:54 am43 °FOvercast.7 mph86%30.16 "Hg10 mi
12:30 am43 °FOvercast.3 mph89%30.16 "Hg10 mi
11:54 pm
Tue, Jan 17
44 °FMostly cloudy.5 mph85%30.16 "Hg10 mi
11:12 pm44 °FMostly cloudy.7 mph82%30.16 "Hg10 mi
10:54 pm44 °FMostly cloudy.9 mph85%30.16 "Hg10 mi
9:54 pm44 °FOvercast.7 mph85%30.15 "Hg10 mi
8:54 pm44 °FOvercast.8 mph85%30.15 "Hg10 mi
8:29 pm44 °FLow clouds.8 mph85%30.15 "Hg10 mi
7:54 pm44 °FMostly cloudy.9 mph85%30.14 "Hg9 mi
6:54 pm44 °FOvercast.8 mph85%30.13 "Hg10 mi
5:54 pm45 °FOvercast.8 mph80%30.12 "Hg10 mi
4:54 pm45 °FOvercast.9 mph80%30.10 "Hg10 mi
3:54 pm47 °FOvercast.10 mph74%30.06 "Hg10 mi
2:54 pm48 °FOvercast.10 mph77%30.03 "Hg10 mi
1:54 pm48 °FOvercast.10 mph77%30.01 "Hg10 mi
12:54 pm48 °FOvercast.7 mph74%30.01 "Hg10 mi
Weather by CustomWeather, © 2017

See weather overviewHow to use our weather pages